Terminal Aerodrome Forecast
Issued by NWS Green Bay, WI

Home | Current Version | Previous Version | Text Only | Print | Product List | Glossary On
Versions: 1 2 3 4 5 6 7 8 9 10 11 12 13 14 15 16 17 18 19 20 21 22 23 24 25 26 27 28 29 30 31 32 33 34 35 36
000
FTUS43 KGRB 230500
TAFGRB
TAF
KGRB 230520Z 2306/2406 23004KT P6SM SKC
      TEMPO 2308/2312 3SM BR
     FM231800 20006KT P6SM FEW040
     FM240000 18003KT P6SM SKC=

USA.gov is the U.S. government's official web portal to all federal, state and local government web resources and services.